[[{"header":{"parameterUnit":"m.s-1","parameterCategory":1,"la1":30.2991,"la2":30.254,"lo1":-89.0895,"lo2":-89.0444,"dy":0.0017,"dx":0.0017,"nx":28,"ny":28,"refTime":"2024-05-18T09:00:00:Z","depth":0,"parameterNumber":2,"parameterNumberName":"U-component_of_WINDS"},"data":[0,0,0,0,0,0,0,0,0,0,0,0,0,0,0,0,0,0,0,0,0,0,0,0,0,0,0,0,0,0,0,0,0,0,0,0,0,0,0,0,0,0,0,0,0,0,0,0,0,0,0,0,0,0,0,0,0,0,0.574,0.574,0,0.5768,0.5768,0.5769,0.574,0.5739,0.5738,0.5737,0.5767,0.5769,0.5771,0,0,0,0,0,0,0,0,0,0,0,0,0,0.5662,0.5664,0.574,0.574,0.5741,0.5768,0.5768,0.5769,0.5741,0.5739,0.5738,0.5737,0.5767,0.5769,0.5771,0,0,0,0,0,0,0,0,0,0,0,0,0,0.5694,0.5664,0.574,0.573,0.5729,0.5768,0.5768,0.5769,0.5741,0.5739,0.5738,0.5736,0.5766,0.5769,0.5771,0.5822,0,0,0.578,0.5781,0,0,0,0,0,0,0,0,0.5692,0.5697,0.5731,0.5731,0.573,0.5749,0.5752,0.5787,0.5741,0.5737,0.5737,0.5735,0.5763,0.5766,0.5775,0.5823,0.5825,0.578,0.5782,0.5783,0.5784,0,0,0,0,0,0,0,0.569,0.5695,0.5751,0.5732,0.5731,0.5724,0.5727,0.5758,0.5759,0.5737,0.5735,0.5738,0.5762,0.5772,0.5775,0.5825,0.578,0.5782,0.5784,0.5785,0.5914,0.5916,0,0,0,0,0,0,0.5689,0.5694,0.575,0.5752,0.5706,0.5727,0.573,0.5745,0.5758,0.5759,0.574,0.5737,0.5768,0.5772,0.5776,0.5834,0.5783,0.5786,0.5787,0.5913,0.5915,0.5917,0,0,0,0,0,0,0.5687,0.5694,0.5749,0.5722,0.5729,0.573,0.5747,0.5746,0.5756,0.5761,0.576,0.575,0.5767,0.5772,0.581,0.5835,0.5787,0.5789,0.5911,0.5913,0.5916,0.5953,0,0,0,0,0,0,0.5685,0.5694,0.5713,0.5723,0.573,0.5783,0.5748,0.5748,0.5761,0.5757,0.577,0.577,0.5766,0.5806,0.5813,0.5838,0.5791,0.5908,0.5912,0.5915,0.5949,0.5956,0.5962,0,0,0,0,0,0.5682,0.5723,0.5714,0.5721,0.5754,0.5784,0.5789,0.5782,0.5763,0.5782,0.5785,0.577,0.5831,0.581,0.5818,0.5844,0.5907,0.5911,0.5915,0.5946,0.5955,0.5962,0,0,0,0,0,0,0.5717,0.5724,0.5714,0.576,0.5771,0.578,0.5804,0.5792,0.581,0.5806,0.5798,0.5801,0.5841,0.5846,0.5823,0.5893,0.5866,0.5872,0.5887,0.5896,0.5902,0.59,0.5794,0,0,0,0,0,0.573,0.5753,0.5758,0.5798,0.5804,0.5803,0.5816,0.581,0.5822,0.5827,0.5833,0.5845,0.5867,0.5882,0.5902,0.595,0.5952,0.5972,0.5978,0.5984,0.5988,0.6012,0.6021,0.593,0.593,0.593,0,0,0.5757,0.5763,0.5779,0.5805,0.5813,0.5838,0.5808,0.5835,0.5853,0.5831,0.5867,0.5871,0.5885,0.5927,0.5946,0.5933,0.6014,0.5989,0.5993,0.5995,0.6017,0.6026,0.6034,0.5932,0.5932,0.5932,0,0,0.5818,0.5826,0.5858,0.5867,0.588,0.5879,0.5886,0.5896,0.5898,0.5933,0.5917,0.5938,0.5977,0.5986,0.5996,0.6059,0.6046,0.6066,0.61,0.6123,0.6131,0.6137,0.6158,0.6166,0.6071,0.6071,0.6071,0,0.585,0.5885,0.5877,0.5905,0.5916,0.5897,0.5929,0.5939,0.5958,0.5966,0.5951,0.5997,0.6005,0.6048,0.6063,0.6073,0.6081,0.6064,0.613,0.6136,0.6142,0.6162,0.617,0.6073,0.6073,0.6073,0.6073,0,0.5923,0.5948,0.5973,0.599,0.6005,0.6035,0.6031,0.6046,0.6038,0.6039,0.6074,0.6083,0.6104,0.6114,0.6107,0.6156,0.6147,0.6131,0.6104,0.6153,0.6172,0.618,0.6076,0.6076,0.6075,0.6074,0,0,0.6008,0.6019,0.6028,0.6035,0.6047,0.6066,0.6095,0.6115,0.6127,0.6141,0.6164,0.6196,0.6181,0.6192,0.6186,0.6207,0.6254,0.6188,0.6189,0.6199,0.6307,0.6318,0.6327,0.6246,0.6247,0.6248,0.6305,0,0.6068,0.6117,0.611,0.6157,0.6179,0.6161,0.6186,0.6195,0.6196,0.6215,0.6216,0.6238,0.6217,0.6223,0.6243,0.6244,0.6276,0.624,0.6267,0.6268,0.6263,0.6337,0.635,0.6403,0.6313,0.6314,0.6315,0,0.6145,0.616,0.6209,0.6216,0.6225,0.6247,0.6264,0.6282,0.6293,0.6292,0.6303,0.6293,0.6321,0.6294,0.6332,0.6308,0.6319,0.6321,0.6323,0.6325,0.6294,0.634,0.642,0.6428,0.6327,0.6326,0.6325,0,0.6199,0.6232,0.6265,0.6272,0.6281,0.6297,0.6302,0.6311,0.6322,0.6337,0.6344,0.6362,0.6372,0.6386,0.6381,0.6362,0.642,0.6392,0.6419,0.6419,0.6432,0.6431,0.6514,0.644,0.644,0.644,0.644,0,0.6267,0.6298,0.629,0.631,0.6344,0.6335,0.6368,0.6371,0.6378,0.6398,0.6384,0.6403,0.6395,0.6414,0.6411,0.6442,0.6447,0.6446,0.6445,0.6447,0.6447,0.6453,0.6449,0.6442,0.6442,0.6441,0.6441,0,0.6334,0.633,0.6365,0.637,0.6372,0.6396,0.64,0.6419,0.6418,0.6444,0.6449,0.6448,0.6469,0.6465,0.6489,0.6486,0.6525,0.652,0.6522,0.652,0.6547,0.6544,0.6636,0.6647,0.6567,0.6568,0.6568,0,0.6377,0.6399,0.6407,0.6419,0.6424,0.6444,0.6455,0.6447,0.646,0.6472,0.6489,0.6509,0.6524,0.6559,0.656,0.6578,0.6572,0.6603,0.6575,0.6576,0.6571,0.6569,0.6571,0.6608,0.6609,0.661,0.6611,0,0.6452,0.6449,0.6466,0.6482,0.6495,0.6508,0.6519,0.6529,0.6522,0.6537,0.6557,0.6569,0.6592,0.6612,0.6628,0.6633,0.662,0.6619,0.6626,0.6629,0.6628,0.6627,0.6536,0.6617,0.6617,0.6616,0.6616,0.6616,0.6508,0.6526,0.6534,0.6553,0.656,0.657,0.6587,0.6588,0.6605,0.6622,0.6617,0.664,0.6649,0.6669,0.6675,0.6693,0.6682,0.6692,0.6695,0.6697,0.67,0.6626,0.6697,0.6696,0.6696,0.6696,0.6696,0,0.6582,0.6585,0.6603,0.6617,0.6632,0.6618,0.6629,0.6642,0.6663,0.6672,0.6686,0.671,0.6728,0.673,0.6747,0.6761,0.6756,0.6766,0.6764,0.6765,0.671,0.6701,0.677,0.677,0.677,0.677,0.677,0.677,0.6622,0.6652,0.665,0.6683,0.6686,0.6709,0.6716,0.6725,0.6731,0.6758,0.6773,0.6773,0.6779,0.6796,0.6812,0.6812,0.6819,0.6831,0.6829,0.6777,0.6769,0.6762,0.6754,0.6833,0.6833,0.6883,0.6883,0.6883]},{"header":{"parameterUnit":"m.s-1","parameterCategory":1,"la1":30.2991,"la2":30.254,"lo1":-89.0895,"lo2":-89.0444,"dy":0.0017,"dx":0.0017,"nx":28,"ny":28,"refTime":"2024-05-18T09:00:00:Z","depth":0,"parameterNumber":3,"parameterNumberName":"V-component_of_WINDS"},"data":[0,0,0,0,0,0,0,0,0,0,0,0,0,0,0,0,0,0,0,0,0,0,0,0,0,0,0,0,0,0,0,0,0,0,0,0,0,0,0,0,0,0,0,0,0,0,0,0,0,0,0,0,0,0,0,0,0,0,1.9504,1.9503,0,1.9414,1.9413,1.9412,1.9305,1.9303,1.9302,1.93,1.9208,1.9207,1.9206,0,0,0,0,0,0,0,0,0,0,0,0,0,1.9582,1.9581,1.9504,1.9503,1.9501,1.9414,1.9413,1.9411,1.9305,1.9303,1.9301,1.93,1.9208,1.9207,1.9206,0,0,0,0,0,0,0,0,0,0,0,0,0,1.9526,1.9581,1.9504,1.9438,1.9431,1.9414,1.9412,1.9411,1.9306,1.9303,1.9301,1.9299,1.9208,1.9207,1.9205,1.9246,0,0,1.9201,1.92,0,0,0,0,0,0,0,0,1.9529,1.9523,1.9449,1.9443,1.9435,1.9368,1.9406,1.9356,1.9306,1.9353,1.93,1.9297,1.9263,1.9257,1.9245,1.9241,1.9237,1.9201,1.92,1.92,1.9199,0,0,0,0,0,0,0,1.9533,1.9526,1.9468,1.9448,1.9439,1.9412,1.9402,1.9396,1.9323,1.9349,1.9341,1.9332,1.9259,1.9247,1.9242,1.9236,1.9201,1.92,1.9199,1.9198,1.9258,1.926,0,0,0,0,0,0,1.9547,1.953,1.9471,1.9465,1.9477,1.9413,1.9401,1.9392,1.9323,1.931,1.9334,1.9327,1.9251,1.9244,1.9239,1.9279,1.92,1.9198,1.9197,1.9255,1.9258,1.9261,0,0,0,0,0,0,1.9549,1.9543,1.9474,1.9495,1.9485,1.9414,1.9405,1.9391,1.938,1.9311,1.9298,1.9336,1.9248,1.9241,1.9244,1.9275,1.9198,1.9196,1.9252,1.9256,1.9259,1.9363,0,0,0,0,0,0,1.9552,1.9544,1.9559,1.9497,1.9484,1.9482,1.9407,1.9391,1.9378,1.9368,1.9309,1.9297,1.9246,1.9247,1.9243,1.9271,1.9195,1.9249,1.9254,1.9258,1.9356,1.9369,1.9381,0,0,0,0,0,1.9555,1.9592,1.9561,1.9554,1.9502,1.9484,1.9477,1.9417,1.9381,1.9395,1.935,1.9299,1.9272,1.9248,1.9243,1.9271,1.9247,1.9253,1.9258,1.9351,1.9367,1.938,0,0,0,0,0,0,1.9661,1.9583,1.9547,1.9565,1.9532,1.9467,1.9483,1.9437,1.9413,1.9405,1.9332,1.932,1.9331,1.9302,1.9276,1.9305,1.9252,1.9257,1.9324,1.9339,1.9351,1.9358,1.9194,0,0,0,0,0,1.9686,1.9679,1.9611,1.9634,1.9619,1.9554,1.9544,1.9501,1.9464,1.9449,1.9405,1.9371,1.9354,1.9345,1.9326,1.9351,1.9336,1.9368,1.938,1.9391,1.9395,1.9404,1.9417,1.9279,1.9279,1.9279,0,0,1.9738,1.9695,1.9695,1.9654,1.9623,1.9617,1.9543,1.954,1.9534,1.9449,1.9449,1.9416,1.9372,1.9386,1.939,1.9362,1.943,1.9398,1.9407,1.9405,1.9411,1.9425,1.9436,1.9282,1.9282,1.9281,0,0,1.983,1.9798,1.9812,1.9782,1.9737,1.9693,1.9697,1.9637,1.9612,1.9611,1.9546,1.9538,1.9512,1.9482,1.9464,1.9544,1.9495,1.954,1.9604,1.9613,1.9624,1.9633,1.966,1.9671,1.9545,1.9545,1.9545,0,1.9901,1.9889,1.9825,1.9825,1.9808,1.9731,1.9744,1.9718,1.9669,1.9659,1.9628,1.9591,1.9557,1.9562,1.9581,1.957,1.957,1.9546,1.9628,1.9636,1.9644,1.9669,1.9679,1.9551,1.955,1.9549,1.9549,0,1.9978,1.9971,1.9988,1.9941,1.9926,1.9934,1.9869,1.9862,1.9819,1.9779,1.9778,1.9733,1.9703,1.9701,1.966,1.97,1.9684,1.9642,1.9586,1.9664,1.9686,1.9695,1.9559,1.9557,1.9555,1.9554,0,0,2.0134,2.0052,2.0059,2.0036,1.9979,1.9972,1.9975,1.9945,1.994,1.9908,1.9907,1.9886,1.9846,1.9825,1.978,1.9789,1.9853,1.9745,1.9743,1.9765,1.9892,1.9924,1.9936,1.982,1.9822,1.9823,1.9895,0,2.0215,2.0215,2.0157,2.0173,2.0165,2.009,2.0092,2.0057,2.0019,2.0005,1.9962,1.9948,1.9897,1.9884,1.9889,1.9844,1.9877,1.9838,1.9818,1.9818,1.983,1.9947,1.9981,2.0051,1.9903,1.9905,1.9906,0,2.0309,2.0283,2.0298,2.0239,2.0234,2.0237,2.0204,2.0193,2.0151,2.0122,2.0099,2.0047,2.0044,1.9992,1.9987,1.9962,1.9949,1.9926,1.9927,1.9922,1.9866,1.9945,2.0073,2.0083,1.9919,1.9918,1.9917,0,2.042,2.0388,2.0393,2.0376,2.0308,2.0311,2.0283,2.0239,2.0224,2.0195,2.0185,2.0157,2.0141,2.0119,2.0061,2.0029,2.0061,2.0005,2.0036,2.0038,2.0046,2.0046,2.0173,2.004,2.004,2.004,2.004,0,2.0516,2.0528,2.0441,2.0444,2.0455,2.0387,2.04,2.0364,2.0325,2.0319,2.0252,2.0248,2.0171,2.0157,2.0112,2.0113,2.0106,2.0082,2.007,2.0088,2.0091,2.0079,2.0072,2.0043,2.0042,2.0041,2.0041,0,2.0642,2.0584,2.0584,2.0519,2.0503,2.0514,2.0458,2.0457,2.0414,2.0407,2.0402,2.0334,2.0315,2.0254,2.0219,2.0188,2.0203,2.018,2.0217,2.0209,2.0243,2.024,2.0366,2.0378,2.0239,2.024,2.0242,0,2.0706,2.0714,2.065,2.0641,2.0615,2.0602,2.0586,2.0519,2.0506,2.0458,2.0463,2.0438,2.0414,2.0386,2.0333,2.0306,2.0281,2.0326,2.0276,2.0294,2.028,2.028,2.028,2.0338,2.0339,2.0341,2.0342,0,2.0826,2.0797,2.0778,2.0748,2.0732,2.0705,2.0675,2.0671,2.0596,2.0584,2.0563,2.0545,2.0509,2.0484,2.0448,2.0417,2.0367,2.0358,2.0364,2.0382,2.0403,2.0391,2.0246,2.0356,2.0354,2.0353,2.0353,2.0352,2.0922,2.0925,2.088,2.086,2.083,2.0803,2.0798,2.0755,2.0736,2.0702,2.0663,2.0647,2.0602,2.0548,2.0522,2.0506,2.048,2.0488,2.049,2.0493,2.0501,2.0406,2.05,2.0499,2.0499,2.0498,2.0498,0,2.1038,2.1005,2.0988,2.0947,2.0931,2.0885,2.0849,2.0838,2.0824,2.0788,2.0766,2.0741,2.0716,2.0661,2.0631,2.063,2.0606,2.0624,2.0623,2.0616,2.0527,2.0525,2.0644,2.0644,2.0644,2.0644,2.0644,2.0644,2.1096,2.1098,2.1063,2.1049,2.1015,2.0998,2.0981,2.0955,2.0925,2.0901,2.088,2.0845,2.08,2.0766,2.0741,2.0725,2.0717,2.0742,2.0719,2.0637,2.0623,2.061,2.0607,2.0741,2.0742,2.0809,2.081,2.0811]}]]